RH
65 67 69 67 64 63 59 57 57 56 53 50 47 40 32 27 26 19 21 18 14 13 15 17 18 20 23 24 23 24 21 18 16 13 14 16 16 16 18 20 22 25 27
72 72 72 70 66 64 62 60 57 53 50 42 40 37 31 27 27 21 22 18 14 15 18 20 21 21 22 23 22 22 23 23 22 20 17 16 16 17 18 19 19 20 23
78 77 79 76 71 70 67 62 56 50 46 39 39 32 32 30 30 27 23 19 17 19 20 21 22 21 22 22 23 23 23 23 23 23 24 25 20 18 17 18 19 20 20
83 81 83 78 76 76 73 67 59 51 44 41 40 39 37 32 33 24 24 21 18 20 21 22 22 22 23 25 26 27 26 24 23 22 22 27 26 22 20 20 20 20 21
84 81 84 81 82 81 80 72 58 49 44 38 44 42 35 36 34 28 30 27 22 20 21 23 24 25 27 28 30 29 29 29 30 29 28 27 31 29 24 22 22 21 22
82 83 82 82 83 83 80 73 58 50 43 44 39 39 37 35 36 38 36 33 25 23 25 27 31 31 31 32 35 35 35 34 33 31 29 27 34 30 24 24 23 23 22
84 86 85 86 88 86 79 74 64 50 46 47 42 44 40 40 38 34 34 30 27 26 29 31 33 34 36 39 39 39 38 35 32 30 29 30 29 25 23 23 22 22 21
94 96 92 91 91 88 80 71 62 53 53 49 46 46 47 46 42 41 40 37 34 33 33 35 38 41 42 43 41 38 35 32 29 27 27 31 25 20 18 19 19 20 19
87 93 97 95 93 87 80 64 58 57 53 50 48 50 47 43 42 40 36 34 33 35 40 43 44 48 48 47 43 40 35 30 22 19 19 26 17 17 16 16 16 16 16
84 90 95 95 95 86 82 67 63 60 54 54 54 48 53 52 45 40 40 37 38 40 42 45 50 52 52 50 43 35 32 25 20 18 20 24 22 25 18 17 17 18 18
76 78 84 95 90 88 83 67 64 60 60 58 55 50 44 43 42 41 36 36 39 42 49 54 53 54 57 51 38 32 28 22 20 20 21 19 25 27 27 19 18 18 18
81 81 89 89 90 91 83 83 66 69 69 56 47 46 48 45 41 41 40 41 46 50 55 57 58 60 56 48 34 30 28 24 22 21 21 22 25 28 28 27 23 22 21
86 84 87 95 92 91 84 79 85 74 54 51 51 46 44 42 44 47 49 52 58 59 62 63 61 63 56 41 30 29 30 26 23 22 23 22 21 28 28 28 29 27 23
87 91 91 88 87 89 91 89 77 64 57 47 43 42 47 50 52 52 55 62 63 66 66 63 59 60 48 37 31 31 31 27 24 24 24 23 23 27 28 29 29 30 28
90 91 88 89 91 91 85 73 59 48 43 45 48 50 47 51 56 62 66 68 67 65 64 60 57 55 43 39 35 35 31 26 26 25 24 24 23 24 28 30 30 31 31
76 78 76 79 78 70 62 54 52 48 41 38 45 53 61 69 69 66 71 68 63 60 58 57 58 47 43 40 38 36 32 29 26 25 24 23 23 26 31 30 33 34 34
62 60 57 55 52 43 38 38 41 43 47 56 65 74 77 71 66 68 70 66 59 57 54 55 55 46 44 40 40 36 33 32 30 29 28 30 30 32 37 39 39 39 38
51 55 55 51 45 39 38 43 52 56 63 67 69 78 78 74 77 76 67 60 55 54 53 55 51 46 42 41 38 35 33 34 33 32 31 32 35 39 42 41 40 40 39
55 54 52 53 53 51 49 46 51 52 54 62 68 77 70 68 67 59 58 53 53 53 54 53 47 43 42 39 39 38 39 39 37 36 38 40 39 39 40 41 41 40 38
58 58 56 56 60 59 54 51 49 53 58 63 73 73 61 56 54 51 55 54 53 54 53 49 42 42 42 41 44 48 49 48 45 45 46 43 43 44 42 42 42 42 41
55 55 53 52 50 51 49 51 54 55 59 68 84 79 67 58 54 52 54 53 52 53 50 46 43 45 46 52 57 59 56 53 51 52 51 48 47 50 49 48 47 46 45
49 48 49 51 54 53 55 55 59 61 64 73 89 74 79 70 62 57 56 53 53 52 51 49 53 53 58 61 65 69 71 68 64 59 54 54 50 51 54 54 51 50 51
47 46 47 47 50 58 61 61 63 65 67 75 77 83 82 77 70 65 64 61 59 57 54 60 62 63 70 72 75 78 76 76 73 66 62 59 54 55 57 56 57 57 56
45 48 48 47 48 57 62 61 64 64 65 72 79 85 90 84 73 73 74 68 65 64 64 70 71 75 80 84 79 79 73 69 67 63 64 61 56 58 58 59 61 58 57
50 51 51 54 57 58 62 66 66 63 63 72 87 90 84 85 82 82 75 69 73 71 71 79 82 87 91 93 85 77 68 64 62 63 61 62 60 60 62 62 55 49 44
55 55 57 56 64 67 68 72 74 62 57 64 73 84 87 87 86 82 77 79 80 78 80 88 94 96 91 88 86 78 71 68 63 63 60 61 64 62 58 52 43 38 40